This is the latest recevied weather packets stored in our database for station/object N3HBJ. If no packets are shown the sender has not sent any weather packets the latest 10 day(s).
| Time | Temp. | Humidity | Pressure | Rain* | Wind** | Luminosity | Snow |
|---|---|---|---|---|---|---|---|
| 1777554078 | 8.33° C | 82% | 1009.4 hPa | 0 mm | - | 83 W/m² | - |
| 1777553777 | 8.33° C | 85% | 1009.3 hPa | 0 mm | - | 202 W/m² | - |
| 1777552575 | 7.22° C | 86% | 1009.5 hPa | 0 mm | - | 72 W/m² | - |
| 1777552276 | 7.22° C | 86% | 1009.5 hPa | 0 mm | - | 51 W/m² | - |
| 1777551974 | 7.22° C | 86% | 1009.6 hPa | 0 mm | - | 72 W/m² | - |
| 1777551376 | 7.22° C | 88% | 1009.6 hPa | 0 mm | - | 53 W/m² | - |
| 1777550621 | 7.22° C | 90% | 1009.4 hPa | 0 mm | - | 35 W/m² | - |
| 1777549572 | 7.22° C | 91% | 1009.5 hPa | 0 mm | - | 11 W/m² | - |
| 1777548974 | 7.22° C | 91% | 1009.5 hPa | 0 mm | - | 16 W/m² | - |
| 1777548390 | 7.22° C | 91% | 1009.5 hPa | 0 mm | - | 14 W/m² | - |
| 1777547171 | 7.22° C | 91% | 1009.5 hPa | 0 mm | - | 14 W/m² | - |
| 1777544473 | 7.22° C | 91% | 1009.4 hPa | 0 mm | - | 0 W/m² | - |
| 1777544176 | 7.22° C | 92% | 1009.4 hPa | 0 mm | - | 0 W/m² | - |
| 1777543877 | 7.22° C | 92% | 1009.4 hPa | 0 mm | - | 0 W/m² | - |
| 1777543577 | 7.22° C | 92% | 1009.4 hPa | 0 mm | - | 0 W/m² | - |
| 1777543116 | 7.22° C | 91% | 1009.4 hPa | 0 mm | - | 0 W/m² | - |
| 1777541166 | 7.22° C | 91% | 1009.3 hPa | 0 mm | - | 0 W/m² | - |
| 1777540261 | 7.22° C | 90% | 1009.3 hPa | 0 mm | - | 0 W/m² | - |
| 1777539061 | 7.78° C | 90% | 1009.1 hPa | 0 mm | - | 0 W/m² | - |
| 1777538160 | 7.78° C | 89% | 1009 hPa | 0 mm | - | 0 W/m² | - |
| 1777537259 | 7.78° C | 90% | 1008.9 hPa | 0 mm | - | 0 W/m² | - |
| 1777533953 | 8.33° C | 91% | 1008.1 hPa | 0 mm | - | 0 W/m² | - |
| 1777532152 | 8.33° C | 90% | 1008.2 hPa | 0 mm | - | 0 W/m² | - |
| 1777530946 | 8.33° C | 90% | 1008.1 hPa | 0 mm | - | 0 W/m² | - |
| 1777530048 | 8.89° C | 90% | 1008.1 hPa | 0 mm | - | 0 W/m² | - |
* Rain latest hour (hover to see other rain measurements)
** Current wind speed in m/s (hover to see current wind gust speed)